TimeEDT,TemperatureF,Dew PointF,Humidity,Sea Level PressureIn,VisibilityMPH,Wind Direction,Wind SpeedMPH,Gust SpeedMPH,PrecipitationIn,Events,Conditions,WindDirDegrees,DateUTC
12:15 AM,69.8,64.4,83,30.06,7.0,Calm,Calm,-,N/A,,Scattered Clouds,0,2013-08-07 04:15:00
12:35 AM,69.8,60.8,73,30.06,10.0,Calm,Calm,-,N/A,,Clear,0,2013-08-07 04:35:00
12:55 AM,69.8,60.8,73,30.06,7.0,Calm,Calm,-,N/A,,Clear,0,2013-08-07 04:55:00
1:15 AM,68.0,59.0,73,30.05,10.0,Calm,Calm,-,N/A,,Clear,0,2013-08-07 05:15:00
1:35 AM,68.0,60.8,78,30.04,10.0,Calm,Calm,-,N/A,,Clear,0,2013-08-07 05:35:00
1:55 AM,68.0,60.8,78,30.04,10.0,Calm,Calm,-,N/A,,Clear,0,2013-08-07 05:55:00
2:15 AM,66.2,60.8,83,30.04,7.0,Calm,Calm,-,N/A,,Clear,0,2013-08-07 06:15:00
2:35 AM,66.2,60.8,83,30.04,7.0,Calm,Calm,-,N/A,,Mostly Cloudy,0,2013-08-07 06:35:00
2:55 AM,66.2,60.8,83,30.04,10.0,Calm,Calm,-,N/A,,Mostly Cloudy,0,2013-08-07 06:55:00
3:15 AM,68.0,60.8,78,30.04,10.0,Calm,Calm,-,N/A,,Mostly Cloudy,0,2013-08-07 07:15:00
3:35 AM,68.0,60.8,78,30.03,10.0,Calm,Calm,-,N/A,,Overcast,0,2013-08-07 07:35:00
3:55 AM,68.0,62.6,83,30.04,10.0,Calm,Calm,-,N/A,,Overcast,0,2013-08-07 07:55:00
4:15 AM,68.0,62.6,83,30.04,10.0,Calm,Calm,-,N/A,,Overcast,0,2013-08-07 08:15:00
4:35 AM,68.0,62.6,83,30.04,10.0,Calm,Calm,-,N/A,,Mostly Cloudy,0,2013-08-07 08:35:00
4:55 AM,68.0,62.6,83,30.04,10.0,Calm,Calm,-,N/A,,Scattered Clouds,0,2013-08-07 08:55:00
5:15 AM,68.0,62.6,83,30.04,10.0,Calm,Calm,-,N/A,,Mostly Cloudy,0,2013-08-07 09:15:00
5:35 AM,68.0,62.6,83,30.05,10.0,Calm,Calm,-,N/A,,Mostly Cloudy,0,2013-08-07 09:35:00
5:55 AM,68.0,62.6,83,30.05,10.0,Calm,Calm,-,N/A,,Overcast,0,2013-08-07 09:55:00
6:15 AM,68.0,62.6,83,30.06,10.0,Calm,Calm,-,N/A,,Mostly Cloudy,0,2013-08-07 10:15:00
6:35 AM,68.0,62.6,83,30.06,10.0,Calm,Calm,-,N/A,,Mostly Cloudy,0,2013-08-07 10:35:00
6:55 AM,68.0,62.6,83,30.07,10.0,Calm,Calm,-,N/A,,Overcast,0,2013-08-07 10:55:00
7:15 AM,68.0,62.6,83,30.06,7.0,Calm,Calm,-,N/A,,Overcast,0,2013-08-07 11:15:00
7:35 AM,68.0,62.6,83,30.07,10.0,Calm,Calm,-,N/A,,Mostly Cloudy,0,2013-08-07 11:35:00
7:55 AM,68.0,62.6,83,30.07,7.0,Calm,Calm,-,N/A,,Mostly Cloudy,0,2013-08-07 11:55:00
8:15 AM,69.8,64.4,83,30.07,7.0,Calm,Calm,-,N/A,,Mostly Cloudy,0,2013-08-07 12:15:00
8:35 AM,69.8,64.4,83,30.08,10.0,Calm,Calm,-,N/A,,Overcast,0,2013-08-07 12:35:00
8:55 AM,71.6,64.4,78,30.08,10.0,Calm,Calm,-,N/A,,Overcast,0,2013-08-07 12:55:00
9:15 AM,73.4,66.2,78,30.08,7.0,Calm,Calm,-,N/A,,Mostly Cloudy,0,2013-08-07 13:15:00
9:35 AM,73.4,68.0,83,30.09,10.0,Calm,Calm,-,N/A,,Overcast,0,2013-08-07 13:35:00
9:55 AM,75.2,68.0,78,30.09,10.0,Calm,Calm,-,N/A,,Mostly Cloudy,0,2013-08-07 13:55:00
10:15 AM,77.0,68.0,74,30.09,10.0,Calm,Calm,-,N/A,,Mostly Cloudy,0,2013-08-07 14:15:00
10:35 AM,77.0,68.0,74,30.09,10.0,Calm,Calm,-,N/A,,Mostly Cloudy,0,2013-08-07 14:35:00
10:55 AM,78.8,68.0,69,30.09,10.0,SE,4.6,-,N/A,,Scattered Clouds,140,2013-08-07 14:55:00
11:15 AM,80.6,69.8,70,30.08,10.0,SE,4.6,-,N/A,,Clear,140,2013-08-07 15:15:00
11:35 AM,80.6,68.0,65,30.09,10.0,Calm,Calm,-,N/A,,Clear,0,2013-08-07 15:35:00
11:55 AM,80.6,69.8,70,30.09,10.0,East,3.5,-,N/A,,Clear,90,2013-08-07 15:55:00
12:15 PM,82.4,68.0,62,30.08,10.0,SSE,5.8,-,N/A,,Scattered Clouds,150,2013-08-07 16:15:00
12:35 PM,84.2,69.8,62,30.09,10.0,SE,4.6,-,N/A,,Mostly Cloudy,130,2013-08-07 16:35:00
12:55 PM,86.0,69.8,58,30.09,7.0,SE,4.6,-,N/A,,Mostly Cloudy,140,2013-08-07 16:55:00
1:15 PM,84.2,69.8,62,30.08,7.0,Calm,Calm,-,N/A,,Scattered Clouds,0,2013-08-07 17:15:00
1:35 PM,84.2,69.8,62,30.08,7.0,Calm,Calm,-,N/A,,Mostly Cloudy,0,2013-08-07 17:35:00
1:55 PM,86.0,69.8,58,30.08,7.0,ESE,4.6,-,N/A,,Mostly Cloudy,110,2013-08-07 17:55:00
2:15 PM,86.0,68.0,55,30.07,10.0,SE,4.6,-,N/A,,Mostly Cloudy,140,2013-08-07 18:15:00
2:35 PM,87.8,62.6,43,30.06,7.0,SSW,5.8,-,N/A,,Mostly Cloudy,200,2013-08-07 18:35:00
2:55 PM,87.8,59.0,38,30.06,7.0,Calm,Calm,-,N/A,,Mostly Cloudy,0,2013-08-07 18:55:00
3:15 PM,87.8,59.0,38,30.05,7.0,SE,4.6,-,N/A,,Clear,140,2013-08-07 19:15:00
3:35 PM,87.8,64.4,46,30.04,7.0,SSW,3.5,-,N/A,,Scattered Clouds,210,2013-08-07 19:35:00
3:55 PM,87.8,64.4,46,30.04,10.0,Calm,Calm,-,N/A,,Scattered Clouds,0,2013-08-07 19:55:00
4:15 PM,87.8,66.2,49,30.03,10.0,SSW,3.5,-,N/A,,Scattered Clouds,200,2013-08-07 20:15:00
4:35 PM,87.8,66.2,49,30.03,7.0,SSE,3.5,-,N/A,,Scattered Clouds,150,2013-08-07 20:35:00
4:55 PM,87.8,68.0,52,30.03,7.0,Calm,Calm,-,N/A,,Scattered Clouds,0,2013-08-07 20:55:00
5:15 PM,87.8,68.0,52,30.02,7.0,South,3.5,-,N/A,,Scattered Clouds,170,2013-08-07 21:15:00
5:35 PM,87.8,66.2,49,30.02,7.0,Calm,Calm,-,N/A,,Mostly Cloudy,0,2013-08-07 21:35:00
5:55 PM,84.2,68.0,58,30.02,7.0,East,3.5,-,N/A,,Mostly Cloudy,80,2013-08-07 21:55:00
6:15 PM,84.2,68.0,58,30.02,10.0,East,4.6,-,N/A,,Scattered Clouds,90,2013-08-07 22:15:00
6:35 PM,82.4,68.0,62,30.02,7.0,SE,3.5,-,N/A,,Mostly Cloudy,140,2013-08-07 22:35:00
6:55 PM,82.4,69.8,66,30.02,10.0,Calm,Calm,-,N/A,,Scattered Clouds,0,2013-08-07 22:55:00
7:15 PM,82.4,69.8,66,30.02,10.0,ESE,3.5,-,N/A,,Clear,120,2013-08-07 23:15:00
7:35 PM,80.6,71.6,74,30.02,10.0,Calm,Calm,-,N/A,,Clear,0,2013-08-07 23:35:00
7:55 PM,80.6,71.6,74,30.03,10.0,Calm,Calm,-,N/A,,Clear,0,2013-08-07 23:55:00
8:15 PM,78.8,71.6,78,30.03,10.0,Calm,Calm,-,N/A,,Clear,0,2013-08-08 00:15:00
8:35 PM,77.0,71.6,83,30.03,10.0,Calm,Calm,-,N/A,,Clear,0,2013-08-08 00:35:00
8:55 PM,77.0,71.6,83,30.03,10.0,Calm,Calm,-,N/A,,Clear,0,2013-08-08 00:55:00
9:15 PM,75.2,71.6,89,30.03,7.0,Calm,Calm,-,N/A,,Clear,0,2013-08-08 01:15:00
9:35 PM,75.2,71.6,89,30.04,7.0,Calm,Calm,-,N/A,,Clear,0,2013-08-08 01:35:00
9:55 PM,73.4,71.6,94,30.04,10.0,Calm,Calm,-,N/A,,Clear,0,2013-08-08 01:55:00
10:15 PM,73.4,68.0,83,30.05,7.0,Calm,Calm,-,N/A,,Clear,0,2013-08-08 02:15:00
10:35 PM,73.4,69.8,88,30.05,7.0,Calm,Calm,-,N/A,,Clear,0,2013-08-08 02:35:00
10:55 PM,71.6,69.8,94,30.06,7.0,Calm,Calm,-,N/A,,Clear,0,2013-08-08 02:55:00
11:15 PM,71.6,69.8,94,30.06,7.0,Calm,Calm,-,N/A,,Clear,0,2013-08-08 03:15:00
11:35 PM,71.6,68.0,88,30.06,7.0,Calm,Calm,-,N/A,,Clear,0,2013-08-08 03:35:00
11:55 PM,71.6,68.0,88,30.06,7.0,Calm,Calm,-,N/A,,Clear,0,2013-08-08 03:55:00